SCP
0 0 0 0 0 0 0 0 0 0 0 0 0 0 0 0 0 0 0 0 0 0 0 0 0 0 0 0 0 0 1 1 1 1 0 0 0 0 0 0 0 0 1 1
0 0 0 0 0 0 0 0 0 0 0 0 0 0 0 0 0 0 0 0 0 0 0 0 0 0 0 0 0 0 1 1 1 1 0 0 0 0 0 0 0 0 0 0
0 0 0 0 0 0 0 0 0 0 0 0 0 0 0 0 0 0 0 0 0 0 0 0 0 0 0 0 0 0 1 1 1 1 1 1 1 1 0 0 0 0 0 0
0 0 0 0 0 0 0 0 0 0 0 0 0 0 0 0 0 0 0 0 0 0 0 0 0 0 0 0 0 0 0 1 1 1 1 1 1 1 1 1 0 0 0 0
0 0 0 0 0 0 0 0 0 0 0 0 0 0 0 0 0 0 0 0 0 0 0 0 0 0 0 0 0 0 0 0 1 1 1 1 1 1 1 1 1 0 0 0
0 0 0 0 0 0 0 0 0 0 0 0 0 0 0 0 0 0 0 0 0 0 0 0 0 0 0 0 0 0 0 0 0 1 1 1 1 1 1 1 1 1 1 1
0 0 0 0 0 0 0 0 0 0 0 0 0 0 0 0 0 0 0 0 0 0 0 0 0 0 0 0 0 0 0 0 0 1 1 1 1 1 1 1 1 1 1 1
0 0 0 0 0 0 0 0 0 0 0 0 0 0 0 0 0 0 0 0 0 0 0 0 0 0 0 0 0 0 0 0 0 0 1 1 1 1 1 1 1 1 1 1
0 0 0 0 0 0 0 0 0 0 0 0 0 0 0 0 0 0 0 0 0 0 0 0 0 0 0 0 0 0 0 0 0 0 1 1 1 1 1 1 1 2 1 1
0 0 0 0 0 0 0 0 0 0 0 0 0 0 0 0 0 0 0 0 0 0 0 0 0 0 0 0 0 0 0 0 0 0 0 0 0 0 1 1 1 2 2 2
0 0 0 0 0 0 0 0 0 0 0 0 0 0 0 0 0 0 0 0 0 0 0 0 0 0 0 0 0 0 0 0 0 0 0 0 0 0 0 1 1 1 1 1
0 0 0 0 0 0 0 0 0 0 0 0 0 0 0 0 0 0 0 0 0 0 0 0 0 0 0 0 0 0 0 0 0 0 0 0 0 0 0 0 0 1 1 1
0 0 0 0 0 0 0 0 0 0 0 0 0 0 0 0 0 0 0 0 0 0 0 0 0 0 0 0 0 0 0 0 0 0 0 0 0 0 0 0 0 0 0 0
0 0 0 0 0 0 0 0 0 0 0 0 0 0 0 0 0 0 0 0 0 0 0 0 0 0 0 0 0 0 0 0 0 0 0 0 0 0 0 0 0 0 0 0
0 0 0 0 0 0 0 0 0 0 0 0 0 0 0 0 0 0 0 0 0 0 0 0 0 0 0 0 0 0 0 0 0 0 0 0 0 0 0 0 0 0 0 0
0 0 0 0 0 0 0 0 0 0 0 0 0 0 0 0 0 0 0 0 0 0 0 0 0 0 0 0 0 0 0 0 0 0 0 0 0 0 0 0 0 0 0 0
0 0 0 0 0 0 0 0 0 0 0 0 0 0 0 0 0 0 0 0 0 0 0 0 0 0 0 0 0 0 0 0 0 0 0 0 0 0 0 0 0 0 0 0
0 0 0 0 0 0 0 0 0 0 0 0 0 0 0 0 0 0 0 0 0 0 0 0 0 0 0 0 0 0 0 0 0 0 0 0 0 0 0 0 0 0 0 0
0 0 0 0 0 0 0 0 0 0 0 0 0 0 0 0 0 0 0 0 0 0 0 0 0 0 0 0 0 0 0 0 0 0 0 0 0 0 0 0 0 0 0 0
0 0 0 0 0 0 0 0 0 0 0 0 0 0 0 0 0 0 0 0 0 0 0 0 0 0 0 0 0 0 0 0 0 0 0 0 0 0 0 0 0 0 0 0
0 0 0 0 0 0 0 0 0 0 0 0 0 0 0 0 0 0 0 0 0 0 0 0 0 0 0 0 0 0 0 0 0 0 0 0 0 0 0 0 0 0 0 0
0 0 0 0 0 0 0 0 0 0 0 0 0 0 0 0 0 0 0 0 0 0 0 0 0 0 0 0 0 0 0 0 0 0 0 0 0 0 0 0 0 0 0 0
0 0 0 0 0 0 0 0 0 0 0 0 0 0 0 0 0 0 0 0 0 0 0 0 0 0 0 0 0 0 0 0 0 0 0 0 0 0 0 0 0 0 0 0
0 0 0 0 0 0 0 0 0 0 0 0 0 0 0 0 0 0 0 0 0 0 0 0 0 0 0 0 0 0 0 0 0 0 0 0 0 0 0 0 0 0 0 0
0 0 0 0 0 0 0 0 0 0 0 0 0 0 0 0 0 0 0 0 0 0 0 0 0 0 0 0 0 0 0 0 0 0 0 0 0 0 0 0 0 0 0 0
0 0 0 0 0 0 0 0 0 0 0 0 0 0 0 0 0 0 0 0 0 0 0 0 0 0 0 0 0 0 0 0 0 0 0 0 0 0 0 0 0 0 0 0
0 0 0 -0 -0 -0 0 0 0 0 0 0 0 0 0 0 0 0 0 0 0 0 0 0 0 0 0 0 0 0 0 0 0 0 0 0 0 0 0 0 0 0 0 0
Wind_Speed
13 14 12 13 14 12 12 12 12 13 14 12 8 8 7 6 5 4 4 5 4 4 4 4 4 5 5 4 4 4 3 3 3 4 4 4 5 7 7 7 7 8 10 10
11 12 13 17 16 15 16 15 16 16 17 11 8 7 7 5 4 4 4 5 5 5 5 5 4 5 5 6 5 5 4 3 3 2 2 3 4 6 7 7 7 7 8 10
8 8 10 13 12 14 14 12 12 14 13 7 7 7 5 4 3 4 4 4 4 4 4 4 4 4 5 5 6 5 4 4 3 2 1 3 4 5 7 7 7 7 7 9
5 5 11 9 3 6 9 11 10 10 8 7 6 5 3 2 2 3 4 4 4 4 4 4 4 4 4 4 5 5 5 4 3 2 2 2 3 5 6 6 7 7 8 8
4 6 11 8 5 5 6 7 6 7 6 5 5 4 3 2 1 2 3 3 3 3 3 3 3 3 4 4 4 4 5 5 4 3 2 2 3 5 5 5 6 6 7 8
6 7 8 4 0 1 0 6 4 4 4 4 3 3 4 3 3 3 3 3 3 4 3 3 3 3 4 4 4 4 5 5 5 4 3 3 4 4 3 4 5 5 5 7
11 9 9 5 2 4 3 6 1 1 2 3 4 4 3 4 4 3 3 3 3 4 3 3 3 3 4 4 4 5 5 5 5 4 4 3 3 3 3 3 4 5 5 5
7 9 11 3 4 5 6 2 2 2 3 4 5 4 4 4 4 3 3 3 3 4 4 3 3 3 3 4 4 5 5 5 5 4 4 3 3 3 3 4 4 4 5 5
9 9 5 2 5 5 3 4 4 4 4 5 5 6 6 5 4 3 3 3 3 3 4 4 3 3 3 4 5 5 5 5 5 5 4 3 3 3 3 3 3 4 4 4
7 8 7 6 6 5 4 5 5 5 5 5 6 6 6 5 4 3 3 3 3 3 4 4 4 3 4 4 4 5 6 6 5 4 4 2 2 2 3 3 4 4 4 4
11 9 8 7 7 7 6 5 5 5 5 6 6 7 7 5 5 4 4 3 3 3 4 4 4 4 4 3 4 5 6 5 5 4 3 2 1 2 3 4 5 5 4 4
9 6 6 6 5 5 6 5 5 6 6 6 6 6 6 5 4 4 4 3 4 4 4 4 4 5 4 3 3 4 5 5 4 3 2 1 1 1 2 3 4 5 5 5
10 8 8 8 6 5 5 5 5 5 6 6 6 6 6 5 4 4 4 4 4 5 4 5 5 5 4 3 3 4 5 5 4 3 2 1 1 1 1 1 1 3 4 6
7 6 8 7 6 5 5 5 5 6 6 5 5 5 4 4 4 4 5 5 4 4 5 5 5 5 4 3 4 4 5 5 4 3 2 2 2 2 2 2 1 1 2 6
6 5 6 5 5 4 4 4 5 5 5 5 5 4 4 4 5 5 4 4 4 5 5 5 5 6 4 3 4 4 4 3 3 2 2 1 2 2 2 3 3 2 2 3
5 5 5 5 5 5 5 5 5 6 5 5 5 4 4 4 5 4 4 4 4 5 5 5 6 5 3 3 4 4 3 5 4 2 2 1 1 2 2 3 3 3 3 4
4 4 4 4 5 5 5 5 5 5 5 5 5 5 4 4 4 5 5 5 5 5 5 6 6 4 4 4 3 3 2 3 5 3 2 2 2 2 3 3 3 3 3 4
4 4 3 4 4 5 5 4 4 4 4 4 4 4 4 5 5 6 5 5 4 5 5 5 4 3 3 3 3 2 2 3 3 2 2 2 2 2 3 3 4 4 3 4
2 2 2 3 3 3 4 4 4 4 4 3 4 5 5 5 5 5 5 4 5 6 5 3 5 4 3 4 4 3 3 3 3 2 2 3 3 2 3 3 3 4 4 4
2 1 1 2 2 2 3 3 3 3 3 3 4 5 5 5 5 5 5 5 5 4 4 4 4 4 4 4 4 3 3 3 3 3 2 2 2 2 3 3 4 4 4 4
2 2 2 2 2 2 2 3 3 4 4 4 4 5 6 6 5 5 5 6 5 4 4 6 4 3 3 4 5 3 3 3 3 3 3 2 2 2 3 3 3 3 4 4
2 2 2 2 2 3 3 3 3 4 4 5 5 5 5 6 6 5 5 5 5 6 4 3 3 4 5 5 3 3 3 3 3 3 3 3 3 3 3 3 3 3 4 4
2 2 2 2 3 4 4 3 3 4 4 5 5 6 6 6 4 4 5 4 3 6 4 3 4 7 7 4 3 3 3 3 3 3 3 3 3 3 3 4 4 4 4 4
2 2 2 3 3 3 4 4 4 4 4 5 5 5 5 5 4 4 4 6 7 7 4 4 7 7 6 2 2 3 3 3 3 3 3 3 3 3 3 4 4 4 5 5
2 2 3 3 3 3 4 4 4 4 4 4 5 5 4 3 4 4 4 4 6 6 3 4 7 7 4 2 2 3 3 3 3 3 3 3 3 3 3 3 4 5 5 5
2 3 3 3 3 3 3 3 3 4 4 5 5 4 4 3 4 3 3 3 4 5 4 2 2 3 2 2 2 2 2 2 2 2 3 3 3 3 3 4 5 4 5 5
3 2 2 3 3 3 3 3 4 4 4 4 5 5 4 4 3 3 3 3 3 3 2 2 1 1 1 1 1 2 2 2 2 2 3 3 3 3 4 4 4 4 5 5
Wind_Direction
259 268 272 266 264 257 246 245 255 265 270 278 291 294 303 309 316 328 333 336 335 336 336 343 347 343 340 335 335 319 304 289 260 236 217 209 211 204 195 192 192 190 187 184
270 264 265 266 262 256 255 253 255 263 269 274 279 283 290 298 310 321 323 329 337 338 337 338 339 339 339 339 339 335 323 307 294 264 228 213 218 199 191 193 189 188 192 185
271 282 285 266 249 244 244 243 247 256 263 280 284 284 292 300 311 314 318 328 332 333 329 324 327 331 329 329 331 332 318 309 313 305 273 232 220 201 192 193 189 191 194 190
272 282 250 246 234 239 248 251 247 258 270 276 279 285 287 296 308 318 329 326 322 321 319 316 323 326 322 322 323 323 317 310 314 296 270 261 221 207 200 192 192 194 194 194
249 258 269 267 249 238 248 265 253 265 280 294 296 296 298 314 310 302 304 308 310 308 304 309 316 322 322 317 315 316 318 313 308 296 281 276 242 213 204 194 194 196 193 190
237 248 255 260 49 108 309 276 260 257 276 294 304 280 282 323 331 325 327 327 323 317 313 314 316 325 320 312 313 314 311 306 303 301 279 263 249 228 212 198 195 191 194 191
235 250 262 265 174 120 191 249 297 302 289 288 273 250 278 303 312 315 315 315 322 316 310 308 314 322 314 313 313 310 308 305 302 294 275 264 251 237 210 194 187 188 188 188
215 233 249 207 167 197 225 269 299 282 274 280 284 288 290 288 291 299 307 314 323 320 311 307 308 310 309 308 311 312 310 307 299 294 283 273 238 231 211 189 184 186 182 180
208 225 243 199 218 226 233 263 271 276 279 277 280 284 283 277 273 278 288 295 307 307 310 310 310 310 303 304 311 314 314 311 304 299 290 266 230 220 204 189 185 184 179 178
253 251 254 258 260 258 250 255 266 271 275 274 275 278 276 270 267 269 274 278 282 290 297 303 308 309 294 300 309 311 308 306 301 296 293 269 239 220 204 194 190 184 181 180
252 261 272 260 260 266 268 269 274 275 274 271 272 274 273 274 270 266 269 273 272 270 277 286 296 296 293 300 309 307 303 302 300 296 292 267 257 235 217 209 198 192 191 187
243 243 250 264 263 263 267 270 271 272 275 273 267 272 273 273 273 273 269 267 269 269 272 280 288 289 290 293 293 297 298 298 297 296 289 267 254 293 253 211 198 196 194 192
252 262 267 275 283 288 278 275 275 269 267 273 274 270 269 269 267 268 270 268 267 271 273 278 281 283 284 284 281 281 286 288 291 290 277 273 245 215 247 19 128 174 176 174
256 264 267 267 271 279 281 283 281 278 275 273 273 276 274 275 272 269 268 270 269 270 272 274 276 277 281 279 276 275 282 282 283 278 260 252 246 229 197 179 181 167 160 160
257 253 257 266 268 274 282 284 283 279 279 280 277 273 267 269 270 271 274 278 277 271 269 270 272 274 279 277 273 274 278 278 278 274 268 253 243 233 202 181 175 165 137 145
264 261 262 264 267 275 280 277 275 277 278 281 284 283 279 271 270 273 273 272 269 268 268 269 269 270 274 273 272 271 270 279 282 271 262 250 235 228 201 179 172 171 170 159
250 256 262 273 277 278 277 275 275 279 282 283 284 289 289 282 278 275 276 275 270 267 264 260 261 263 261 255 255 260 262 272 277 269 255 247 233 218 197 181 179 177 176 170
228 238 242 253 268 277 283 285 284 286 287 288 292 290 283 273 269 272 277 282 280 273 265 258 254 255 251 248 248 248 255 260 254 245 247 246 241 217 192 182 176 169 162 156
292 270 266 266 270 271 278 283 288 291 294 296 291 286 282 274 273 277 280 275 268 271 270 259 267 261 248 245 251 241 242 248 251 242 238 246 248 212 188 179 174 163 159 154
327 321 303 297 297 290 290 295 300 298 295 291 287 286 284 281 283 285 279 270 260 255 261 265 262 246 238 238 250 236 233 238 241 236 225 223 223 206 187 180 167 157 158 155
322 323 319 314 313 316 309 307 304 298 300 298 287 283 282 285 285 282 276 278 275 262 261 267 259 242 231 237 248 234 233 235 236 232 222 213 211 201 184 173 164 158 156 149
316 315 313 314 315 316 316 313 302 299 301 299 293 287 285 286 286 281 267 263 272 276 273 252 242 247 251 251 227 223 228 232 232 226 216 204 201 197 184 172 164 162 155 150
306 304 306 309 306 305 309 306 299 297 292 291 290 288 284 282 279 275 280 274 271 276 275 254 258 266 271 255 220 218 223 225 225 218 213 205 199 189 178 172 168 163 155 151
300 305 303 301 302 299 299 300 300 295 290 290 288 287 286 288 286 275 270 278 283 283 273 267 271 271 273 245 214 216 219 219 217 211 207 200 185 176 174 169 165 159 154 151
289 290 288 289 290 285 286 296 302 298 296 295 292 290 285 273 273 282 284 280 282 287 283 276 272 271 258 224 212 218 218 212 207 199 195 184 176 174 175 167 162 158 155 153
275 276 276 274 273 281 290 294 296 298 300 301 302 300 296 291 285 284 284 283 284 290 290 281 270 268 242 220 212 211 205 204 210 204 189 178 169 170 171 163 159 157 152 150
274 273 280 287 283 280 285 290 290 292 293 293 296 297 296 295 292 289 286 283 283 284 284 279 264 244 234 234 213 200 199 197 194 187 176 171 170 168 166 162 157 152 150 151